Tracking 28790 objects as of 18-Apr-2024
HD Live streaming from Space Station
objects crossing your sky now

COSMOS 977

Track COSMOS 977 now!
10-day predictions
COSMOS 977 is classified as:


NORAD ID: 10584
Int'l Code: 1978-005B
Perigee: 1,406.2 km
Apogee: 1,470.7 km
Inclination: 74.0 °
Period: 114.5 minutes
Semi major axis: 7809 km
RCS: 0.6664 m2 (medium)
Launch date: January 10, 1978
Source: Commonwealth of Independent States (former USSR) (CIS)
Launch site: PLESETSK MISSILE AND SPACE COMPLEX (PKMTR)
Your satellite tracking list
Your tracking list is empty




NASA's NSSDC Master Catalog

Two Line Element Set (TLE):
1 10584U 78005B   24108.88347676  .00000012  00000-0  16783-3 0  9993
2 10584  74.0314 325.6869 0041275 228.4550 142.8510 12.57968210112076
Source of the keplerian elements: AFSPC